www.pogodaiklimat.ru

Погода и климат >> Архив погоды >> Мексика >> Коацакоалькос


ПОГОДА в Коацакоалькосе

  • Прогноз погоды в Коацакоалькосе
  • Монитор погоды в Коацакоалькосе

АРХИВ ПОГОДЫ в Коацакоалькосе

Время (UTC), дата Ветер
(напр.,м/с)
 
Видим.   Явления Облачность Т
(С)
Тd
(С)
f
(%)
Тe
(С)
Тes
(С)
Комфортность P
(гПа)
Po
(гПа)
Тmin
(С)
Tmax
(С)
R
(мм)
R24
(мм)
S
(см)
21 11.02 СВ 5 12 км мгла {туман} 3/3 450 м
[Cu med, cong]
+26.2 +22.7 81 +35 +38 очень
душно
1010.1 1008.3
00 12.02 СВ 4 12 км мгла {туман} 3/3 420 м
[Cu med, cong]
+25.2 +22.8 87 +33 +33 очень
душно
1008.0 1006.2 +19.0 +29.0
03 12.02 СВ 4 6000 м мгла {туман} 3/3 360 м
[Cu med, cong]
+24.2 +23.0 93 +32 +32 очень
душно
1009.6 1007.8
12 12.02 Ю 2 200 м туман ?/? +20.6 +20.4 99 +26 +26 душно 1008.6 1006.8 +19.2 +29.0
15 12.02 Ю 3 4000 м дымка 10/0 2000 м
[As op]
+22.0 +21.7 98 +29 +30 очень
душно
1010.5 1008.6
18 12.02 С 8
{11}
10 км мгла {туман} 3/3 1500 м
[Cu med, cong]
+26.7 +23.6 83 +36 +38 очень
душно
1012.2 1010.4 +19.2 +28.5
21 12.02 С 13
{20}
8000 м пыльный позёмок 6/5 360 м
[Cu med, cong Ac trans]
+26.4 +23.5 84 +36 +36 очень
душно
1012.2 1010.4
00 13.02 С 12
{20}
6000 м пыльный позёмок 6/5 360 м
[Cu med, cong Ac trans]
+24.6 +23.1 91 +33 +33 очень
душно
1013.6 1011.8 +19.2 +28.5
03 13.02 СЗ 14
{23}
4000 м пыльная буря {метель} 8/8 150 м
[St]
+22.9 +21.8 94 +31 +31 очень
душно
1016.3 1014.5
12 13.02 С 14
{21}
4000 м сильная пыльная буря 8/5 1500 м
[Cu med, cong Ac und]
+20.0 +18.7 92 +22 +22 комфорт 1019.3 1017.4 +18.8 +28.5
15 13.02 СЗ 14
{20}
7000 м пыльный позёмок 5/5 270 м
[Cu med, cong]
+21.0 +19.1 89 +25 +25 комфорт 1020.9 1019.0
18 13.02 СЗ 11
{17}
8000 м пыльный позёмок 6/6 270 м
[Cu med, cong]
+22.6 +21.2 92 +30 +30 очень
душно
1022.2 1020.3 +18.8 +23.2
21 13.02 СЗ 11
{17}
6000 м пыльная буря {метель} 8/5 400 м
[Cu med, cong Ac trans]
+22.6 +19.5 83 +29 +29 очень
душно
1018.6 1016.7
00 14.02 СЗ 9 6000 м пыльный позёмок 9/5 400 м
[Cu med, cong Ac trans]
+22.0 +18.8 82 +27 +27 душно 1018.2 1016.4 +18.8 +24.6
03 14.02 С 6 6000 м мгла 6/5 330 м
[Cu med, cong Ac trans]
+21.6 +19.1 86 +27 +27 душно 1019.2 1017.3
09 14.02 З 3 4000 м мгла {туман} 8/5 1500 м
[Cu med, cong As op]
+20.1 +19.3 95 +24 +24 комфорт 1016.8 1015.0
12 14.02 Ю 2 4000 м мгла {туман} 8/5 1500 м
[Cu med, cong As op]
+19.2 +18.1 93 +22 +22 комфорт 1015.2 1013.3 +16.0 +24.6
15 14.02 ЮЗ 2 7000 м мгла {туман} 8/5 270 м
[Cu med, cong Ac und]
+21.2 +18.4 84 +25 +27 комфорт 1016.9 1015.0
18 14.02 ЮЗ 2 9000 м мгла {туман} 8/5 360 м
[Cu med, cong Ac und]
+24.0 +20.3 80 +30 +34 очень
душно
1017.1 1015.3 +16.0 +24.8
21 14.02 С 3 8000 м мгла {туман} 8/5 360 м
[Cu med, cong Ac trans]
+26.0 +21.5 76 +33 +35 очень
душно
1011.6 1009.8
00 15.02 СВ 3 8000 м мгла {туман} 4/4 360 м
[Cu med, cong]
+23.8 +21.7 88 +30 +30 очень
душно
1010.2 1008.3 +16.0 +27.4
03 15.02 З 1 3000 м мгла {туман} ясно +22.7 +21.2 91 +30 +30 очень
душно
1010.6 1008.8
06 15.02 СВ 1 4000 м туман на расстоянии ясно +22.7 +22.3 98 +31 +31 очень
душно
1011.9 1010.1 +16.0 +27.4
09 15.02 С 1 4000 м мгла {туман} ясно +22.0 +21.7 98 +29 +29 очень
душно
1010.3 1008.5
12 15.02 Ю 2 <100 м туман ясно +19.2 +19.2 100 +22 +22 комфорт 1010.6 1008.7 +18.2 +27.4
15 15.02 ЮЗ 1 5000 м дымка {туман} 1/1 270 м
[Cu med, cong]
+21.8 +21.5 98 +28 +35 душно 1011.4 1009.5
18 15.02 СВ 3 10 км мгла {туман} 3/3 420 м
[Cu med, cong]
+26.4 +22.9 81 +35 +45 очень
душно
1011.7 1009.9 +18.2 +27.8
21 15.02 СВ 4 7000 м мгла {туман} ясно +27.9 +23.7 78 +38 +44 очень
душно
1007.0 1005.2
00 16.02 С 2 6000 м мгла {туман} ясно +26.7 +23.8 84 +37 +37 очень
душно
1006.4 1004.5 +18.2 +29.6
03 16.02 СВ 2 4000 м мгла {туман} 1/1 1500 м
[Cu hum]
+25.6 +23.4 88 +35 +35 очень
душно
1007.4 1005.6
12 16.02 З 2 4000 м мгла {туман} 1/1 1500 м
[Cu med, cong]
+22.8 +22.2 96 +31 +31 очень
душно
1006.1 1004.3 +18.0 +29.6
15 16.02 Ю 3 8000 м мгла {туман} ясно +25.6 +23.7 89 +35 +40 очень
душно
1007.4 1005.6
18 16.02 Ю 4 10 км мгла {туман} ясно +31.5 +25.0 68 +45 +56 опасность
перегрева
1006.6 1004.7 +18.0 +33.3
21 16.02 Ю 5 10 км мгла {туман} 1/1 1500 м
[Cu hum]
+35.0 +23.6 52 +46 +51 опасность
перегрева
1003.9 1002.1
00 17.02 Ю 4 10 км мгла {туман} 1/1 1500 м
[Cu hum]
+32.0 +26.0 71 +48 +48 опасность
перегрева
1003.0 1001.2 +18.0 +37.0
03 17.02 ЮЗ 4 5000 м мгла {туман} 1/1 480 м
[Cu med, cong]
+27.2 +23.7 81 +37 +37 очень
душно
1004.6 1002.8
12 17.02 ЮЗ 4 4000 м мгла {туман} ясно +24.8 +21.3 81 +31 +31 очень
душно
1003.4 1001.6 +23.4 +37.0
15 17.02 Ю 3 15 км мгла {туман} 1/1 1500 м
[Cu hum]
+28.2 +22.6 72 +37 +42 очень
душно
1005.6 1003.7
18 17.02 Ю 6 20 км мгла {туман} 3/3 1500 м
[Cu med, cong]
+32.4 +24.1 62 +45 +49 опасность
перегрева
1005.6 1003.8 +23.4 +31.5
21 17.02 Ю 8 25 км мгла {туман} 1/1 1500 м
[Cu hum]
+35.0 +23.6 52 +46 +48 опасность
перегрева
1003.0 1001.2
00 18.02 Ю 7
{14}
25 км мгла {туман} ясно +32.3 +23.5 60 +43 +43 опасность
перегрева
1003.1 1001.3 +23.4 +37.5
03 18.02 ЮЗ 5 4000 м мгла ясно +28.8 +21.3 64 +36 +36 очень
душно
1004.9 1003.1
06 18.02 ЮЗ 3 4000 м мгла {туман} ясно +26.2 +21.4 75 +33 +33 очень
душно
1006.9 1005.1
12 18.02 З 4 4000 м мгла {туман} ясно +0.2 +21.2 100 -6 -6 1008.2 1006.4 +20.1 +37.5
15 18.02 СЗ 3 9000 м мгла {туман} 1/1 400 м
[Cu med, cong]
+27.0 +23.8 83 +37 +42 очень
душно
1011.2 1009.4
18 18.02 ЮЗ 3 14 км мгла {туман} ясно +31.4 +24.2 66 +44 +58 опасность
перегрева
1012.4 1010.5 +20.1 +35.0

 

Местоположение метеостанции Коацакоалькос (Мексика): широта 18.13 долгота -94.41 высота над уровнем моря 22 м.

В архиве по умолчанию представлена погода в Коацакоалькосе за последнюю неделю. Архивные данные за месяц целиком и за предыдущие месяцы, начиная с января 2011 года, Вы можете получить, выбрав интересующий диапазон дат из раскрывающегося списка и нажав кнопку "Ввод!".


*Определитесь, кто Вы:
робот инопланетянин человек

Внимание! Время в таблицах - всемирное. Для получения местного времени необходимо прибавить поправку, которая равна -6 ч.

Смотрите также архив погоды в соседних городах и на ближайших метеорологических станциях:

Погода в Вильяэрмосе (Мексика) (157 км)
Погода в Тустла-Гутьерресе (Мексика) (205 км)
Погода в Веракрусе (Мексика) (212 км)
Погода в Арриаге (Мексика) (218 км)
Погода в Салина-Крусе (Мексика) (233 км)
Погода в Сан-Кристобаль-де-лас-Касасе (Мексика) (243 км)
Погода в Оахаке (Мексика) (272 км)
Погода в Кордове (Мексика) (279 км)
Погода в Оризабе (Мексика) (295 км)
Погода в Халапе (Мексика) (307 км)

Пояснения к столбцам:

Ветер - указаны скорость ветра в м/с - средняя за 10 мин, порывы в срок и между сроками (в фигурных скобках) и направление, откуда дует ветер: С - северный, СВ - северо-восточный, В - восточный, ЮВ - юго-восточный, Ю - южный, ЮЗ - юго-западный, З - западный, СЗ - северо-западный.
Видимость - горизонтальная дальность видимости в метрах или километрах. При видимости от 1 до 10 км при отсутствии осадков обычно наблюдается дымка, при ухудшении видимости до 1 км и менее - туман. В сухую погоду видимость может ухудшаться дымом, пылью или мглою.
Явления - указаны атмосферные явления, наблюдавшиеся в срок или в последний час перед сроком; фигурными скобками обозначены явления, наблюдавшиеся между сроками (за 1-3 часа до срока); квадратными скобками обозначены град или гололедные отложения с указанием их диаметра в мм.
Облачность - указаны через наклонную черту общая и нижняя облачность в баллах и высота нижней границы облаков в метрах; квадратными скобками обозначены формы облаков: Ci - перистые, Cs - перисто-слоистые, Cc - перисто-кучевые, Ac - высококучевые, As - высокослоистые, Sc - слоисто-кучевые, Ns - слоисто-дождевые, Cu - кучевые, Cb - кучево-дождевые. Подробнее классификацию облаков см. в Атласе облаков (PDF).
T - Температура воздуха - температура, измеренная на высоте 2 м над землей.
Td - Температура точки росы - температура, при понижении до которой содержащийся в воздухе водяной пар достигнет насыщения.
f - Относительная влажность воздуха - влажноcть воздуха, измеренная на высоте 2 м над землей.
Te - Эффективная температура - температура, которую ощущает одетый по сезону человек в тени. Характеристика душности погоды. При расчете учитывается влияние влажности воздуха и скорости ветра на теплоощущения человека.
Tes - Эффективная температура на солнце - температура, которую ощущает человек, с поправкой на солнечный нагрев. Характеристика знойности погоды. Зависит от высоты солнца над горизонтом, облачности и скорости ветра. Ночью, в пасмурную погоду, а также при ветре 12 м/с и более поправка равна нулю.
P - Атмосферное давление - приведенное к уровню моря атмосферное давление.
Po - Атмосферное давление - измеренное на уровне метеостанции атмосферное давление.
Tmin - Минимальная температура - минимум температуры воздуха на высоте 2 м над землей.
Tmax - Максимальная температура - максимум температуры воздуха на высоте 2 м над землей.
R - Количество осадков - Количество выпавших осадков за период времени, мм. При наведении курсора мыши на число - период времени, за который выпало указанное количество осадков.
R24 - Количество осадков - Количество выпавших осадков за 24 часа, мм.
S - Снежный покров - Высота снежного покрова, см. При наведении курсора мыши на число - состояние снежного покрова и степень покрытия местности в баллах.